Weather History for Tyler, TX

Change the Weather History Date:

Sunday, August 4, 2013

  Actual Average Record
Temperature  
Mean Temperature 87 °F 84 °F  
Max Temperature 97 °F 94 °F 109 °F (2011)
Min Temperature 77 °F 74 °F 54 °F (1976)
Degree Days  
Heating Degree Days 0 0  
Month to date heating degree days 0 0  
Since 1 June heating degree days 0 0  
Since 1 July heating degree days 0 0  
Cooling Degree Days 22 19  
Month to date cooling degree days 90 76  
Year to date cooling degree days 1552 1434  
Since 1 June cooling degree days 1155 1065  
Growing Degree Days 36 (Base 50)    
Moisture  
Dew Point 70 °F    
Average Humidity 63    
Maximum Humidity 88    
Minimum Humidity 38    
Precipitation  
Precipitation 0.00 in 0.08 in 0.70 in (1971)
Month to date precipitation 0.00 0.28  
Year to date precipitation 19.38 26.68  
Snow  
Snow 0.00 in - - ()
Month to date snowfall 0.0  
Since 1 June snowfall 0.0  
Since 1 July snowfall 0.0  
Snow Depth 0.00 in    
Sea Level Pressure  
Sea Level Pressure 30.03 in    
Wind  
Wind Speed 7 mph (South)    
Max Wind Speed 13 mph    
Max Gust Speed 17 mph    
Visibility 10 miles    
Events      
T = Trace of Precipitation, MM = Missing Value Source: NWS Daily Summary

Daily Weather History Graph

Daily Weather History Graph

Search for Another Location

Airport:

Trip Planner

Search our weather history database for the weather conditions in past years. The results will help you decide how hot, cold, wet, or windy it might be!

Date:

Astronomy

Aug. 04, 2013 Rise Set
Actual Time 6:38 AM CDT 8:16 PM CDT
Civil Twilight 6:11 AM CDT 8:42 PM CDT
Nautical Twilight 5:40 AM CDT 9:14 PM CDT
Astronomical Twilight 5:06 AM CDT 9:48 PM CDT
Moon 4:41 AM CDT (8/4) 6:40 PM CDT (8/4)
Length of Visible Light 14h 30m
Length of Day
13h 37m
Waning Crescent, 4% of the Moon is Illuminated
Aug 4
Waning Crescent
Aug 6
New
Aug 14
First Quarter
Aug 20
Full
Aug 28
Last Quarter

Hourly Weather History & Observations

Time (CDT) Temp. Heat Index Dew Point Humidity Pressure Visibility Wind Dir Wind Speed Gust Speed Precip Events Conditions
12:53 AM 81.0 °F 83.8 °F 68.0 °F 65% 30.03 in 10.0 mi ESE 5.8 mph - N/A   Clear
1:53 AM 81.0 °F 84.1 °F 69.1 °F 67% 30.03 in 10.0 mi SSE 5.8 mph - N/A   Clear
2:53 AM 79.0 °F - 70.0 °F 74% 30.02 in 10.0 mi South 6.9 mph - N/A   Clear
3:53 AM 78.1 °F - 71.1 °F 79% 30.01 in 10.0 mi South 8.1 mph - N/A   Clear
4:53 AM 77.0 °F - 72.0 °F 84% 30.02 in 10.0 mi South 5.8 mph - N/A   Clear
5:53 AM 78.1 °F - 73.0 °F 84% 30.04 in 10.0 mi South 6.9 mph - N/A   Clear
6:53 AM 77.0 °F - 73.0 °F 88% 30.06 in 10.0 mi South 5.8 mph - N/A   Clear
7:53 AM 80.1 °F 84.2 °F 73.0 °F 79% 30.08 in 10.0 mi South 4.6 mph - N/A   Clear
8:53 AM 82.9 °F 88.8 °F 73.0 °F 72% 30.09 in 10.0 mi SSW 12.7 mph - N/A   Partly Cloudy
9:53 AM 84.0 °F 90.2 °F 73.0 °F 69% 30.09 in 10.0 mi WSW 10.4 mph - N/A   Partly Cloudy
10:31 AM 86.0 °F 91.8 °F 71.6 °F 62% 30.11 in 10.0 mi SSW 8.1 mph - N/A   Partly Cloudy
10:53 AM 87.1 °F 93.6 °F 72.0 °F 61% 30.09 in 10.0 mi SSW 5.8 mph - N/A   Partly Cloudy
11:32 AM 89.6 °F 96.2 °F 71.6 °F 55% 30.10 in 10.0 mi Variable 6.9 mph - N/A   Mostly Cloudy
11:39 AM 89.6 °F 96.2 °F 71.6 °F 55% 30.10 in 10.0 mi South 6.9 mph - N/A   Partly Cloudy
11:53 AM 89.1 °F 95.0 °F 71.1 °F 55% 30.08 in 10.0 mi SSW 6.9 mph - N/A   Partly Cloudy
12:53 PM 91.0 °F 96.6 °F 70.0 °F 50% 30.06 in 10.0 mi SW 10.4 mph - N/A   Clear
1:53 PM 93.0 °F 97.4 °F 68.0 °F 44% 30.03 in 10.0 mi WSW 4.6 mph - N/A   Clear
2:53 PM 93.9 °F 98.6 °F 68.0 °F 43% 30.02 in 10.0 mi Calm Calm - N/A   Scattered Clouds
3:53 PM 93.9 °F 97.0 °F 66.0 °F 40% 29.99 in 10.0 mi South 5.8 mph - N/A   Clear
4:53 PM 96.1 °F 101.0 °F 68.0 °F 40% 29.97 in 10.0 mi SE 6.9 mph - N/A   Partly Cloudy
5:53 PM 96.1 °F 99.9 °F 66.9 °F 38% 29.96 in 10.0 mi SSE 6.9 mph - N/A   Clear
6:53 PM 95.0 °F 99.0 °F 66.9 °F 40% 29.95 in 10.0 mi SSE 4.6 mph - N/A   Clear
7:37 PM 93.2 °F 97.7 °F 68.0 °F 44% 29.98 in 10.0 mi ESE 6.9 mph - N/A   Partly Cloudy
7:53 PM 93.0 °F 97.4 °F 68.0 °F 44% 29.96 in 10.0 mi ESE 5.8 mph - N/A   Clear
8:53 PM 90.0 °F 94.5 °F 69.1 °F 50% 29.97 in 10.0 mi ESE 5.8 mph - N/A   Clear
9:53 PM 86.0 °F 90.7 °F 70.0 °F 59% 29.98 in 10.0 mi ESE 5.8 mph - N/A   Clear
10:53 PM 84.0 °F 88.4 °F 70.0 °F 63% 29.99 in 10.0 mi SSE 5.8 mph - N/A   Clear
11:53 PM 82.9 °F 87.0 °F 70.0 °F 65% 30.00 in 10.0 mi South 6.9 mph - N/A   Partly Cloudy